Location: Albuquerque Trailhead
(34.7934°N, 106.3736°W)
Time: 12:38:50
(UTC+00:00)

NOAA 19 - Visible Passes

Search period start: 02 April 2023 00:00
Search period end: 12 April 2023 00:00
Orbit: 839 x 861 km, 99.1° (Epoch: 02 April)

Date Brightness Start Highest point End Pass type
(mag) Time Alt. Az. Time Alt. Az. Time Alt. Az.
02 Apr 5.1 02:55:00 17° SSE 02:59:13 78° ENE 03:04:42 10° N visible
02 Apr 7.9 04:39:10 10° WSW 04:40:21 11° W 04:41:31 10° W visible
03 Apr 5.2 02:42:46 15° SSE 02:47:14 60° ENE 02:52:37 10° N visible
03 Apr 7.7 04:25:14 10° SW 04:28:12 15° W 04:31:10 10° WNW visible
04 Apr 5.5 02:30:33 12° SE 02:35:16 46° ENE 02:40:27 10° N visible
04 Apr 7.4 04:12:32 11° SW 04:16:04 20° W 04:19:56 10° NW visible
05 Apr 5.8 02:18:25 10° SE 02:23:20 35° ENE 02:28:14 10° N visible
05 Apr 7.1 04:00:18 13° SW 04:03:58 26° W 04:08:27 10° NW visible
06 Apr 6.2 02:06:53 10° SE 02:11:24 27° ENE 02:15:56 10° NNE visible
06 Apr 6.6 03:48:05 15° SSW 03:51:52 33° W 03:56:46 10° NW visible
07 Apr 6.5 01:55:29 10° ESE 01:59:30 21° ENE 02:03:31 10° NNE visible
07 Apr 6.2 03:35:51 17° SSW 03:39:47 44° W 03:44:59 10° NNW visible
08 Apr 5.7 03:23:38 17° S 03:27:44 58° W 03:33:07 10° NNW visible
09 Apr 5.3 03:11:24 17° S 03:15:42 76° WSW 03:21:10 10° NNW visible
10 Apr 5.1 02:59:10 15° SSE 03:03:41 84° ENE 03:09:09 10° NNW visible
11 Apr 5.2 02:46:57 14° SSE 02:51:41 64° ENE 02:57:05 10° N visible
11 Apr 7.8 04:30:08 10° WSW 04:32:42 13° W 04:35:16 10° WNW visible
